This demonstration page uses our WeatherBlox Daily Observations layout. Learn more.

Left ArrowRight Arrow

Hourly Observations for February 7, 2015

Temp ( °F °C ) Dew Point ( °F °C ) Humidity (%) Winds ( mph kmh ) Pressure ( in mb ) Visibility ( mi km ) Precip ( " mm )
12:53 am 00:53 Clear 43 6.1 38 3.3 82 82 SE 8 13 30.04 1017 10 16 0.00 0.00
1:53 am 01:53 Clear 42 5.6 38 3.3 85 85 SE 5 7 30.03 1017 10 16 0.00 0.00
2:53 am 02:53 Clear 38 3.3 34 1.1 86 86 N 6 9 30.01 1016 10 16 0.00 0.00
3:53 am 03:53 Clear 36 2.2 32 0 86 86 NE 7 11 30.00 1016 10 16 0.00 0.00
4:53 am 04:53 Clear 35 1.7 32 0 89 89 N 3 6 30.00 1016 10 16 0.00 0.00
5:53 am 05:53 Clear 33 0.6 29 -1.7 85 85 NNE 5 7 30.00 1016 8 13 0.00 0.00
6:53 am 06:53 Clear 32 0 28 -2.2 85 85 Calm 30.02 1017 10 16 0.00 0.00
7:53 am 07:53 Sunny 31 -0.6 28 -2.2 89 89 NNW 5 7 30.03 1017 10 16 0.00 0.00
8:28 am 08:28 Partly Cloudy 34 1 30 -1 87 87 N 3 6 30.15 1021 9 14 0.00 0.00
8:53 am 08:53 Mostly Sunny 39 3.9 35 1.7 86 86 N 3 6 30.04 1017 8 13 0.00 0.00
9:53 am 09:53 Sunny 46 7.8 39 3.9 77 77 Calm 30.03 1017 10 16 0.00 0.00
10:53 am 10:53 Sunny 57 13.9 41 5 55 55 NNW 3 6 30.01 1016 10 16 0.00 0.00
11:53 am 11:53 Sunny 67 19.4 39 3.9 36 36 W 8 13 29.98 1015 10 16 0.00 0.00
12:53 pm 12:53 Sunny 76 24.4 31 -0.6 19 19 WSW 14 22 29.92 1013 10 16 0.00 0.00
1:53 pm 13:53 Sunny 80 26.7 28 -2.2 15 15 WSW 17 28 29.87 1012 10 16 0.00 0.00
2:53 pm 14:53 Sunny 82 27.8 27 -2.8 13 13 W 13 20 29.83 1010 10 16 0.00 0.00
3:53 pm 15:53 Sunny 83 28.3 17 -8.3 8 8 W 21 33 29.82 1010 10 16 0.00 0.00
4:53 pm 16:53 Sunny 83 28.3 18 -7.8 9 9 W 17 28 29.81 1009 10 16 0.00 0.00
5:53 pm 17:53 Sunny 80 26.7 19 -7.2 10 10 W 15 24 29.82 1010 10 16 0.00 0.00
6:53 pm 18:53 Clear 75 23.9 18 -7.8 11 11 W 14 22 29.83 1010 10 16 0.00 0.00
7:53 pm 19:53 Clear 67 19.4 22 -5.6 18 18 W 13 20 29.86 1011 10 16 0.00 0.00
8:53 pm 20:53 Clear 61 16.1 24 -4.4 24 24 W 12 19 29.87 1012 10 16 0.00 0.00
9:53 pm 21:53 Clear 60 15.6 24 -4.4 25 25 WSW 12 19 29.87 1011 10 16 0.00 0.00
10:53 pm 22:53 Clear 54 12.2 27 -2.8 35 35 W 10 17 29.86 1011 10 16 0.00 0.00
11:53 pm 23:53 Clear 54 12.2 27 -2.8 35 35 W 10 17 29.85 1011 10 16 0.00 0.00

Powered by AerisWeather